Weather reports worldwide

Advertisment
Drumnadrochit, United Kingdom (99132): temperature & dewpoint: 21.04.2017 04:00:00 - 27.04.2017 04:00:00 (BST)Drumnadrochit, United Kingdom (99132): precipitation: 21.04.2017 04:00:00 - 27.04.2017 04:00:00 (BST)
Date & Time tt [°C] td [°C] rr [mm]
27.04.2017 04:00:00 - - 0,0
27.04.2017 03:00:00 6,9 3,6 0,0
27.04.2017 02:00:00 7,1 3,9 0,0
27.04.2017 01:00:00 7,3 4,3 0,2
27.04.2017 00:00:00 6,6 4,9 0,0
26.04.2017 23:00:00 5,4 5,1 0,0
26.04.2017 22:00:00 5,3 4,8 0,0
26.04.2017 21:00:00 5,7 4,9 0,6
26.04.2017 20:00:00 6,7 4,9 0,6
26.04.2017 19:00:00 8,9 2,5 0,0
26.04.2017 18:00:00 9,1 1,2 0,0
26.04.2017 17:00:00 9,4 1,7 0,0
26.04.2017 16:00:00 9,3 2,1 0,0
26.04.2017 15:00:00 7,6 0,5 0,0
26.04.2017 14:00:00 6,8 0,4 0,0
26.04.2017 13:00:00 6,7 0,0 0,0
26.04.2017 12:00:00 5,9 0,0 0,0
26.04.2017 11:00:00 5,2 -0,5 0,0
26.04.2017 10:00:00 5,1 -0,1 -
26.04.2017 09:00:00 3,3 -0,3 0,0
26.04.2017 08:00:00 2,6 -0,3 0,0
26.04.2017 07:00:00 1,4 -0,4 0,0
26.04.2017 06:00:00 0,8 -1,1 0,0
26.04.2017 05:00:00 0,4 -1,0 0,0
26.04.2017 04:00:00 0,0 -1,4 0,0
26.04.2017 03:00:00 1,3 -1,6 0,0
26.04.2017 02:00:00 2,1 -1,6 0,0
26.04.2017 01:00:00 2,8 -1,3 0,0
26.04.2017 00:00:00 2,6 -1,6 0,0
25.04.2017 23:00:00 2,7 -1,2 0,0
25.04.2017 22:00:00 2,8 -1,1 0,0
25.04.2017 21:00:00 3,1 -1,0 0,0
25.04.2017 20:00:00 4,2 -0,9 0,0
25.04.2017 19:00:00 4,6 -0,5 0,0
25.04.2017 18:00:00 4,9 -1,6 0,2
25.04.2017 17:00:00 4,3 -0,5 0,0
25.04.2017 16:00:00 6,2 0,4 0,4
25.04.2017 15:00:00 5,2 1,2 0,0
25.04.2017 14:00:00 3,3 0,4 0,4
25.04.2017 13:00:00 6,3 2,6 0,0
25.04.2017 12:00:00 3,4 2,0 1,0
25.04.2017 11:00:00 4,0 0,1 0,0
25.04.2017 10:00:00 3,8 0,3 0,0
25.04.2017 09:00:00 2,8 0,4 0,0
25.04.2017 08:00:00 2,9 -0,8 1,4
25.04.2017 07:00:00 2,6 -0,5 0,8
25.04.2017 06:00:00 2,4 -0,3 0,4
25.04.2017 05:00:00 2,2 -0,4 0,2
25.04.2017 04:00:00 1,0 0,1 0,4
25.04.2017 03:00:00 1,3 0,7 0,0
25.04.2017 02:00:00 0,4 -0,1 0,0
25.04.2017 01:00:00 0,9 -0,7 0,0
25.04.2017 00:00:00 1,9 -1,9 0,0
24.04.2017 23:00:00 1,8 -1,7 0,0
24.04.2017 22:00:00 2,0 -0,6 0,2
24.04.2017 21:00:00 2,8 0,5 0,2
24.04.2017 20:00:00 3,2 -0,4 0,0
24.04.2017 19:00:00 4,2 -1,7 0,0
24.04.2017 18:00:00 4,6 -1,8 0,0
24.04.2017 17:00:00 4,4 -2,6 0,0
24.04.2017 16:00:00 3,8 -2,6 -
24.04.2017 15:00:00 3,4 -3,0 -
24.04.2017 14:00:00 3,2 -1,4 0,2
24.04.2017 13:00:00 3,0 -0,5 0,0
24.04.2017 12:00:00 3,8 0,0 -
24.04.2017 11:00:00 3,7 1,8 0,6
24.04.2017 10:00:00 3,7 0,8 0,2
24.04.2017 09:00:00 5,0 -0,9 0,0
24.04.2017 08:00:00 3,6 0,0 0,0
24.04.2017 07:00:00 2,7 0,4 0,0
24.04.2017 06:00:00 0,4 -0,1 0,0
24.04.2017 05:00:00 2,1 1,2 0,0
24.04.2017 04:00:00 3,7 2,5 0,2
24.04.2017 03:00:00 4,3 2,8 0,0
24.04.2017 02:00:00 3,9 3,3 0,0
24.04.2017 01:00:00 5,6 2,3 0,0
24.04.2017 00:00:00 6,1 3,7 0,4
23.04.2017 23:00:00 7,6 4,6 0,6
23.04.2017 22:00:00 7,8 6,0 0,2
23.04.2017 21:00:00 8,0 5,6 0,0
23.04.2017 20:00:00 8,5 4,5 0,0
23.04.2017 19:00:00 9,3 4,1 0,0
23.04.2017 18:00:00 10,6 3,5 -
23.04.2017 17:00:00 10,3 3,1 0,0
23.04.2017 16:00:00 10,5 3,4 0,0
23.04.2017 15:00:00 10,9 2,5 0,0
23.04.2017 14:00:00 10,7 2,2 0,0
23.04.2017 13:00:00 10,0 2,4 0,0
23.04.2017 12:00:00 10,6 3,2 0,0
23.04.2017 11:00:00 9,4 1,4 0,0
23.04.2017 10:00:00 8,5 2,1 0,0
23.04.2017 09:00:00 7,2 2,7 0,0
23.04.2017 08:00:00 6,6 2,6 0,0
23.04.2017 07:00:00 4,5 3,2 0,0
23.04.2017 06:00:00 3,3 2,4 0,0
23.04.2017 05:00:00 2,8 2,2 0,0
23.04.2017 04:00:00 2,6 1,8 0,0
23.04.2017 03:00:00 1,9 1,4 0,0
23.04.2017 02:00:00 1,8 0,7 0,0
23.04.2017 01:00:00 2,5 1,6 0,0
23.04.2017 00:00:00 1,6 1,3 0,0
22.04.2017 23:00:00 1,1 -0,4 0,0
22.04.2017 22:00:00 4,0 1,5 0,0
22.04.2017 21:00:00 3,9 0,8 0,0
22.04.2017 20:00:00 7,0 1,5 0,0
22.04.2017 19:00:00 8,0 1,3 0,0
22.04.2017 18:00:00 9,4 0,1 0,0
22.04.2017 17:00:00 8,4 0,2 0,0
22.04.2017 16:00:00 9,0 1,2 0,0
22.04.2017 15:00:00 10,1 1,9 0,0
22.04.2017 14:00:00 9,1 2,0 0,2
22.04.2017 13:00:00 5,7 1,1 0,0
22.04.2017 12:00:00 8,4 -0,6 0,0
22.04.2017 11:00:00 7,6 -0,5 0,0
22.04.2017 10:00:00 7,0 0,6 -
22.04.2017 09:00:00 5,6 1,4 0,0
22.04.2017 08:00:00 4,8 1,4 0,0
22.04.2017 07:00:00 3,6 1,3 0,0
22.04.2017 06:00:00 3,7 1,2 0,0
22.04.2017 05:00:00 2,1 0,4 0,0
22.04.2017 04:00:00 3,2 0,5 0,0
22.04.2017 03:00:00 4,7 1,4 0,2
22.04.2017 02:00:00 5,3 1,1 0,0
22.04.2017 01:00:00 4,8 1,3 0,0
22.04.2017 00:00:00 4,8 1,5 0,0
21.04.2017 23:00:00 5,6 1,1 0,0
21.04.2017 22:00:00 5,8 1,5 0,0
21.04.2017 21:00:00 6,4 1,0 0,0
21.04.2017 20:00:00 7,6 0,6 0,0
21.04.2017 19:00:00 8,6 1,1 0,0
21.04.2017 18:00:00 8,7 1,0 0,0
21.04.2017 17:00:00 9,3 0,8 0,0
21.04.2017 16:00:00 9,0 3,5 0,0
21.04.2017 15:00:00 10,0 3,4 0,0
21.04.2017 14:00:00 8,7 4,1 0,0
21.04.2017 13:00:00 8,6 4,2 0,0
21.04.2017 12:00:00 9,3 4,6 0,0
21.04.2017 11:00:00 8,3 4,9 0,4
21.04.2017 10:00:00 8,2 6,2 1,0
21.04.2017 09:00:00 8,8 6,6 0,2
21.04.2017 08:00:00 9,8 6,9 0,4
21.04.2017 07:00:00 9,9 9,3 -
21.04.2017 06:00:00 10,6 8,1 0,2
21.04.2017 05:00:00 11,3 7,6 0,0
21.04.2017 04:00:00 10,9 7,7 0,0

tt = temperature
td = dewpoint
rr = precipitation

Next stations